Regional Weather Roundup
Issued by NWS Mobile, AL

Home | Current Version | Previous Version | Text Only | Print | Product List | Glossary On
Versions: 1 2 3 4 5 6 7 8 9 10 11 12 13 14 15 16 17 18 19 20 21 22 23 24 25 26 27 28 29 30 31 32 33 34 35 36 37 38 39 40 41 42 43 44 45 46 47 48 49 50
000
ASUS44 KMOB 241712
RWRMOB
REGIONAL WEATHER ROUNDUP
NATIONAL WEATHER SERVICE MOBILE AL
1200 PM CDT WED MAY 24 2017

NOTE: "FAIR" INDICATES FEW OR NO CLOUDS BELOW 12,000 FEET WITH NO
      SIGNIFICANT WEATHER AND/OR OBSTRUCTIONS TO VISIBILITY.

  * THESE STATIONS ARE PART OF THE UNIVERSITY OF SOUTH ALABAMA
    MESONET AND ARE NOT UNDER NWS OR FAA QUALITY CONTROL.

ALZ061>064-241800-
COASTAL ALABAMA

CITY           SKY/WX    TMP DP  RH WIND       PRES   REMARKS
MOBILE REG APT PTSUNNY   75  54  47 NW13G21   29.66F
BROOKLEY FIELD FAIR      78  60  53 W10G18    29.65F
USA CAMPUS*      N/A     75  59  57 W9        29.65F
DOG RIVER*       N/A     75  59  57 W15       30.28F


CITY           SKY/WX    TMP DP  RH WIND       PRES   REMARKS
GULF SHORES    PTSUNNY   76  66  69 W14G20    29.64F

$$

ALZ051>060-241800-
INTERIOR SOUTHWEST AND SOUTH CENTRAL ALABAMA

CITY           SKY/WX    TMP DP  RH WIND       PRES   REMARKS
GREENVILLE     CLOUDY    76  60  57 W14G22    29.58F
EVERGREEN      PTSUNNY   76  63  64 SW13      29.62F
ATMORE*          N/A     75  63  64 W8        29.65F
ANDALUSIA/OPP  FAIR      80  64  58 W12G21    29.60F
ANDALUSIA*       N/A     75  64  69 W14       29.62F
FLORALA APT    PTSUNNY   78  63  59 SW7       29.62F
FLORALA*         N/A     77  64  65 S5        30.19F

$$

FLZ001>006-241800-
WESTERN FLORIDA PANHANDLE

CITY           SKY/WX    TMP DP  RH WIND       PRES   REMARKS
PENSACOLA      PTSUNNY   80  62  54 W15G23    29.63S
NAS PENSACOLA  PTSUNNY   76  63  64 W8        29.62F
MILTON         PTSUNNY   77  63  61 W16       29.61F
WHTNG S FIELD  PTSUNNY   79  65  62 W10G17    29.62F


CITY           SKY/WX    TMP DP  RH WIND       PRES   REMARKS
JAY*             N/A     75  59  57 W12       29.63F
DUKE FIELD     PTSUNNY   79  63  57 W10       29.60F
CRESTVIEW      FAIR      80  63  55 W12       29.63F
VALPARAISO     PTSUNNY   81  63  53 W14       29.61F
DESTIN         FAIR      84  69  60 W8        29.62F

$$

MSZ076-079-241800-
INTERIOR SOUTHEAST MISSISSIPPI

CITY           SKY/WX    TMP DP  RH WIND       PRES   REMARKS
LEAKESVILLE*   NOT AVBL
AGRICOLA*        N/A     72  57  60 W7        29.66F

$$

MARINE OBSERVATIONS

STATION/POSITION TIME  TEMP    WIND        PRES    WAVE
                       AIR SEA DIR/SP/G            HT/PER
                 (UTC) (F)     (DEG/KT/KT) (MB)    (FT/S)
PASCAGOULA       1648   75     290/ 13/ 18 1004.0F
PETIT BOIS ISLND 1648   72     290/ 16/ 19 1005.1F
GRAND BAY        1545   74     290/  8     1005.0S
KATRINA CUT      1630   73     280/ 14     1004.4S
CEDAR POINT      1630   73     290/ 11     1004.1F
E DAUPHIN ISLAND 1600   72     270/ 11/ 12 1004.1F
MIDDLE BAY LIGHT 1630   73     270/ 10     1003.7S
USCG MOBILE BAY  1648   74 79  270/  7/ 12 1004.4F
STATE DOCKS      1648   80 78              1003.6F
MEAHER PARK      1630   73     260/  9     1004.1F
FORT MORGAN      1648   73     270/ 15/ 17   N/A
12 S ORANGE BCH  1650   73 78  290/ 17/ 19 1003.2F   4/ 6
PENSACOLA BAY    1648   77 80              1003.5S
64 S DAUPHIN ISL 1650   73 78  310/ 17/ 21 1005.0S   4/ 6
67 S FORT MORGAN 1630   76      30/  2     1004.7S

$$

SELECTED LOCATIONS ACROSS THE REGION

CITY           SKY/WX    TMP DP  RH WIND       PRES   REMARKS
NEW ORLEANS    FAIR      73  53  49 NW14G22   29.72F
GULFPORT       FAIR      76  55  48 NW13G22   29.67F
PASCAGOULA AP  FAIR      77  52  41 NW10G21   29.65F
PASCAGOULA*    NOT AVBL
HATTIESBURG    FAIR      71  52  50 NW8G18    29.69S
LAUREL         NOT AVBL
MERIDIAN       PTSUNNY   70  57  63 W8        29.65R
JACKSON        FAIR      71  54  54 W12G24    29.66S
MONTGOMERY     FAIR      76  61  59 SW16G24   29.58F
TROY           LGT RAIN  75  64  68 W10G26    29.60F
ASHFORD*         N/A     75  64  69 W14       29.62F
DOTHAN         PTSUNNY   77  70  79 W13G25    29.62F
PANAMA CITY    FAIR      80  68  66 SW13      29.60F

$$




USA.gov is the U.S. government's official web portal to all federal, state and local government web resources and services.